When you browse on this site, cookies collect data to enhance your experience and personalize the content and advertising you see.
Visit our Privacy Policy to learn more. By continuing to use the site, you agree to this use of cookies and data.
  • In Schweiz
  • Länderverzeichnis
  • Für 7 Tage
  • Wassertemperatur
  • Satellitenkarten
  • Wetterkarte
  • Widgets
  • user-avatar
    Anmelden

    Stündliche Wetter Kalgoorlie

    Heute, 24 Januar, Donnerstag

    Zeit Temperatur Niederschläge Wind Luftdruck Luftfeuchtigkeit
    00:00 +23°C° 0 mm 9 m/S 723 mmHg 34%
    01:00 +21°C° 0 mm 9 m/S 723 mmHg 41%
    02:00 +20°C° 0 mm 8 m/S 723 mmHg 49%
    03:00 +18°C° 0 mm 8 m/S 724 mmHg 53%
    04:00 +18°C° 0 mm 7 m/S 724 mmHg 56%
    05:00 +17°C° 0 mm 7 m/S 725 mmHg 60%
    06:00 +18°C° 0 mm 7 m/S 725 mmHg 57%
    07:00 +20°C° 0 mm 6 m/S 725 mmHg 54%
    08:00 +20°C° 0 mm 6 m/S 726 mmHg 51%
    09:00 +22°C° 0 mm 6 m/S 725 mmHg 46%
    10:00 +24°C° 0 mm 6 m/S 725 mmHg 40%
    11:00 +27°C° 0 mm 5 m/S 725 mmHg 35%
    12:00 +29°C° 0 mm 5 m/S 725 mmHg 32%
    13:00 +30°C° 0 mm 5 m/S 725 mmHg 28%
    14:00 +33°C° 0 mm 5 m/S 724 mmHg 25%
    15:00 +33°C° 0 mm 5 m/S 724 mmHg 24%
    16:00 +34°C° 0 mm 5 m/S 724 mmHg 24%
    17:00 +34°C° 0 mm 5 m/S 724 mmHg 23%
    18:00 +32°C° 0 mm 6 m/S 725 mmHg 28%
    19:00 +31°C° 0 mm 8 m/S 725 mmHg 33%
    20:00 +28°C° 0 mm 10 m/S 726 mmHg 38%
    21:00 +26°C° 0 mm 9 m/S 726 mmHg 43%
    22:00 +23°C° 0 mm 9 m/S 727 mmHg 47%
    23:00 +22°C° 0 mm 9 m/S 727 mmHg 52%

    Morgen, 25 Januar, Freitag

    Zeit Temperatur Niederschläge Wind Luftdruck Luftfeuchtigkeit
    00:00 +21°C° 0 mm 8 m/S 727 mmHg 56%
    01:00 +20°C° 0 mm 8 m/S 727 mmHg 60%
    02:00 +18°C° 0 mm 7 m/S 727 mmHg 64%
    03:00 +17°C° 0 mm 7 m/S 727 mmHg 66%
    04:00 +17°C° 0 mm 7 m/S 728 mmHg 68%
    05:00 +16°C° 0 mm 7 m/S 728 mmHg 71%
    06:00 +17°C° 0 mm 7 m/S 728 mmHg 66%
    07:00 +19°C° 0 mm 6 m/S 729 mmHg 62%
    08:00 +20°C° 0 mm 6 m/S 729 mmHg 58%
    09:00 +22°C° 0 mm 6 m/S 729 mmHg 52%
    10:00 +25°C° 0 mm 5 m/S 729 mmHg 46%
    11:00 +27°C° 0 mm 5 m/S 729 mmHg 39%
    12:00 +28°C° 0 mm 4 m/S 728 mmHg 36%
    13:00 +30°C° 0 mm 4 m/S 727 mmHg 32%
    14:00 +31°C° 0 mm 3 m/S 727 mmHg 28%
    15:00 +33°C° 0 mm 3 m/S 726 mmHg 26%
    16:00 +32°C° 0 mm 2 m/S 726 mmHg 24%
    17:00 +34°C° 0 mm 2 m/S 726 mmHg 22%
    18:00 +34°C° 0 mm 2 m/S 726 mmHg 23%
    19:00 +33°C° 0 mm 3 m/S 727 mmHg 23%
    20:00 +33°C° 0 mm 4 m/S 727 mmHg 24%
    21:00 +30°C° 0 mm 5 m/S 728 mmHg 25%
    22:00 +29°C° 0 mm 7 m/S 728 mmHg 25%
    23:00 +28°C° 0 mm 8 m/S 728 mmHg 26%

    übermorgen, 26 Januar, Samstag

    Zeit Temperatur Niederschläge Wind Luftdruck Luftfeuchtigkeit
    00:00 +26°C° 0 mm 8 m/S 728 mmHg 35%
    01:00 +24°C° 0 mm 8 m/S 728 mmHg 44%
    02:00 +22°C° 0 mm 8 m/S 728 mmHg 53%
    03:00 +21°C° 0 mm 8 m/S 728 mmHg 56%
    04:00 +20°C° 0 mm 8 m/S 728 mmHg 59%
    05:00 +18°C° 0 mm 7 m/S 728 mmHg 63%
    06:00 +20°C° 0 mm 7 m/S 729 mmHg 60%
    07:00 +21°C° 0 mm 7 m/S 730 mmHg 58%
    08:00 +22°C° 0 mm 7 m/S 730 mmHg 55%
    09:00 +24°C° 0 mm 7 m/S 730 mmHg 49%
    10:00 +27°C° 0 mm 7 m/S 730 mmHg 43%
    11:00 +29°C° 0 mm 7 m/S 730 mmHg 36%
    12:00 +30°C° 0 mm 6 m/S 730 mmHg 33%
    13:00 +32°C° 0 mm 6 m/S 729 mmHg 29%
    14:00 +34°C° 0 mm 5 m/S 729 mmHg 25%
    15:00 +34°C° 0 mm 5 m/S 729 mmHg 23%
    16:00 +34°C° 0 mm 5 m/S 728 mmHg 20%
    17:00 +35°C° 0 mm 5 m/S 728 mmHg 18%
    18:00 +34°C° 0 mm 6 m/S 729 mmHg 18%
    19:00 +33°C° 0 mm 7 m/S 729 mmHg 18%
    20:00 +32°C° 0 mm 8 m/S 730 mmHg 18%
    21:00 +28°C° 0 mm 9 m/S 730 mmHg 26%
    22:00 +26°C° 0 mm 10 m/S 731 mmHg 34%
    23:00 +23°C° 0 mm 10 m/S 731 mmHg 42%

    27 Januar, Sonntag

    Zeit Temperatur Niederschläge Wind Luftdruck Luftfeuchtigkeit
    00:00 +22°C° 0 mm 10 m/S 731 mmHg 48%
    01:00 +21°C° 0 mm 9 m/S 731 mmHg 54%
    02:00 +18°C° 0 mm 8 m/S 730 mmHg 60%
    03:00 +18°C° 0 mm 7 m/S 730 mmHg 62%
    04:00 +17°C° 0 mm 7 m/S 731 mmHg 64%
    05:00 +17°C° 0 mm 6 m/S 731 mmHg 66%
    06:00 +19°C° 0 mm 6 m/S 731 mmHg 62%
    07:00 +20°C° 0 mm 6 m/S 731 mmHg 58%
    08:00 +21°C° 0 mm 6 m/S 732 mmHg 53%
    09:00 +23°C° 0 mm 5 m/S 731 mmHg 46%
    10:00 +26°C° 0 mm 5 m/S 731 mmHg 39%
    11:00 +28°C° 0 mm 4 m/S 731 mmHg 32%
    12:00 +29°C° 0 mm 4 m/S 730 mmHg 28%
    13:00 +32°C° 0 mm 4 m/S 730 mmHg 25%
    14:00 +33°C° 0 mm 3 m/S 729 mmHg 21%
    15:00 +33°C° 0 mm 3 m/S 729 mmHg 20%
    16:00 +34°C° 0 mm 4 m/S 728 mmHg 19%
    17:00 +34°C° 0 mm 4 m/S 728 mmHg 18%
    18:00 +33°C° 0 mm 4 m/S 729 mmHg 18%
    19:00 +33°C° 0 mm 4 m/S 729 mmHg 19%
    20:00 +31°C° 0 mm 3 m/S 729 mmHg 19%
    21:00 +30°C° 0 mm 3 m/S 729 mmHg 19%
    22:00 +30°C° 0 mm 4 m/S 730 mmHg 20%
    23:00 +29°C° 0 mm 4 m/S 730 mmHg 20%

    28 Januar, Montag

    Zeit Temperatur Niederschläge Wind Luftdruck Luftfeuchtigkeit
    00:00 +28°C° 0 mm 4 m/S 729 mmHg 22%
    01:00 +27°C° 0 mm 4 m/S 729 mmHg 23%
    02:00 +26°C° 0 mm 4 m/S 729 mmHg 25%
    03:00 +26°C° 0 mm 4 m/S 729 mmHg 27%
    04:00 +25°C° 0 mm 4 m/S 728 mmHg 30%
    05:00 +23°C° 0 mm 4 m/S 728 mmHg 32%
    06:00 +25°C° 0 mm 4 m/S 729 mmHg 31%
    07:00 +26°C° 0 mm 5 m/S 729 mmHg 31%
    08:00 +28°C° 0 mm 5 m/S 730 mmHg 30%
    09:00 +29°C° 0 mm 4 m/S 730 mmHg 26%
    10:00 +32°C° 0 mm 4 m/S 730 mmHg 22%
    11:00 +34°C° 0 mm 3 m/S 729 mmHg 18%
    12:00 +34°C° 0 mm 3 m/S 729 mmHg 17%
    13:00 +35°C° 0 mm 3 m/S 728 mmHg 15%
    14:00 +36°C° 0 mm 2 m/S 728 mmHg 13%
    15:00 +36°C° 0 mm 2 m/S 727 mmHg 13%
    16:00 +37°C° 0 mm 2 m/S 727 mmHg 12%
    17:00 +37°C° 0 mm 2 m/S 727 mmHg 12%
    18:00 +36°C° 0 mm 2 m/S 727 mmHg 12%
    19:00 +35°C° 0 mm 3 m/S 727 mmHg 13%
    20:00 +35°C° 0 mm 3 m/S 727 mmHg 13%
    21:00 +34°C° 0 mm 3 m/S 727 mmHg 14%
    22:00 +33°C° 0 mm 4 m/S 727 mmHg 15%
    23:00 +33°C° 0 mm 4 m/S 728 mmHg 15%

    29 Januar, Dienstag

    Zeit Temperatur Niederschläge Wind Luftdruck Luftfeuchtigkeit
    00:00 +32°C° 0 mm 5 m/S 727 mmHg 16%
    01:00 +30°C° 0 mm 5 m/S 727 mmHg 18%
    02:00 +29°C° 0 mm 5 m/S 726 mmHg 19%
    03:00 +29°C° 0 mm 5 m/S 726 mmHg 20%
    04:00 +28°C° 0 mm 5 m/S 726 mmHg 22%
    05:00 +28°C° 0 mm 5 m/S 726 mmHg 23%
    06:00 +29°C° 0 mm 5 m/S 727 mmHg 22%
    07:00 +30°C° 0 mm 6 m/S 727 mmHg 20%
    08:00 +33°C° 0 mm 7 m/S 728 mmHg 18%
    09:00 +35°C° 0 mm 6 m/S 727 mmHg 16%
    10:00 +36°C° 0 mm 6 m/S 727 mmHg 14%
    11:00 +39°C° 0 mm 5 m/S 727 mmHg 12%
    12:00 +40°C° 0 mm 4 m/S 726 mmHg 11%
    13:00 +39°C° 0 mm 3 m/S 725 mmHg 10%
    14:00 +40°C° 0 mm 2 m/S 725 mmHg 9%
    15:00 +40°C° 0 mm 2 m/S 724 mmHg 8%
    16:00 +40°C° 0 mm 2 m/S 724 mmHg 8%
    17:00 +41°C° 0 mm 2 m/S 724 mmHg 8%
    18:00 +40°C° 0 mm 3 m/S 724 mmHg 8%
    19:00 +40°C° 0 mm 4 m/S 724 mmHg 9%
    20:00 +38°C° 0 mm 4 m/S 724 mmHg 9%
    21:00 +37°C° 0 mm 5 m/S 724 mmHg 10%
    22:00 +36°C° 0 mm 5 m/S 724 mmHg 11%
    23:00 +36°C° 0 mm 5 m/S 724 mmHg 11%
    Mehr zeigen